Regional Weather Roundup
Issued by NWS

Home | Current Version | Previous Version | Graphics & Text | Print | Product List | Glossary On
Versions: 1 2 3 4 5 6 7 8 9 10 11 12 13 14 15 16 17 18 19 20 21 22 23 24 25 26 27 28 29 30 31 32 33 34 35 36 37 38 39 40 41 42 43 44 45 46 47 48 49 50
025
ASUS45 KABQ 281410
RWRNM
NEW MEXICO REGIONAL WEATHER ROUNDUP
NATIONAL WEATHER SERVICE ALBUQUERQUE NM
800 AM MDT FRI APR 28 2017

NOTE: "FAIR" MEANS FEW OR NO CLOUDS BELOW 12,000 FEET AGL WITH NO
       SIGNIFICANT WEATHER OR OBSTRUCTIONS TO VISION.

      THIS PRODUCT IS RELEASED AS TWO VERSIONS.  ONE VERSION NEAR
      THE TOP OF THE HOUR CONTAINING PRELIMINARY DATA FROM ALBUQUERQUE
      AND OTHER STATIONS.  A FINAL VERSION WITH ADDITIONAL DATA IS
      ISSUED ABOUT 10 MINUTES AFTER THE HOUR.

NMZ501-503-504-510>518-281500-
NORTHWEST PLATEAU/NORTHCENTRAL MOUNTAINS

CITY           SKY/WX    TMP DP  RH WIND       PRES   REMARKS
FARMINGTON     LGT RAIN  34  31  88 SW5       29.78S WCI  30
LOS ALAMOS     LGT SNOW  31  31 100 N7        29.79R VSB 3/4 WCI  24
SANTA FE       CLOUDY    37  31  78 N21G32    29.75S WCI  26
TAOS             N/A     34  21  60 S10       29.78S WCI  26
ANGEL FIRE     SNOW      28  26  93 CALM      29.80R VSB 1/2

$$
NMZ402-403-502-505>509-281500-
WESTCENTRAL MOUNTAINS/SOUTHWEST MOUNTAINS

CITY           SKY/WX    TMP DP  RH WIND       PRES   REMARKS
GALLUP         LGT RAIN  37  33  85 NE12      29.79R WCI  29
GRANTS         CLOUDY    37  29  72 N10       29.79R WCI  30
SILVER CITY    FAIR      58  38  47 W14       29.80S

$$
NMZ407-409-411-412-281500-
SOUTHERN DESERTS

CITY           SKY/WX    TMP DP  RH WIND       PRES   REMARKS
DEMING         FAIR      63  37  38 W16G23    29.76R
LAS CRUCES     FAIR      65  37  36 SW10      29.77R
HOLLOMAN AFB   FAIR      69  35  28 S8        29.75R
ALAMOGORDO     FAIR      66  34  30 SW12      29.73R
T OR C         PTSUNNY   63  34  33 W5        29.70S

$$
NMZ519>523-281500-
CENTRAL VALLEYS/CENTRAL HIGHLANDS

CITY           SKY/WX    TMP DP  RH WIND       PRES   REMARKS
ALBUQUERQUE    PTSUNNY   45  27  49 N3        29.75R
DOUBLE EAGLE   PTSUNNY   41  30  65 NW12      29.75S
MORIARTY ARPT  FAIR      44  28  54 N7        29.76S
CLINES CORNERS FAIR      41  23  48 NW12      29.73F
BELEN          CLOUDY    46  29  51 NW10      29.74R
SOCORRO        CLOUDY    49  28  43 N13       29.71F

$$
NMZ524>526-539-540-281500-
SOUTHCENTRAL MOUNTAINS

CITY           SKY/WX    TMP DP  RH WIND       PRES   REMARKS
RUIDOSO        FAIR      55  30  38 S12       29.80S

$$
NMZ527>531-281500-
NORTHEAST HIGHLANDS/NORTHEAST PLAINS

CITY           SKY/WX    TMP DP  RH WIND       PRES   REMARKS
LAS VEGAS      FAIR      41  23  48 E7        29.74S
RATON          PTSUNNY   40  20  44 E6        29.72R
CLAYTON        PTSUNNY   49  36  61 SW8       29.69S

$$
NMZ532>537-281500-
EASTCENTRAL PLAINS

CITY           SKY/WX    TMP DP  RH WIND       PRES   REMARKS
SANTA ROSA     FAIR      48  30  50 CALM      29.70S
TUCUMCARI      FAIR      54  38  54 SE5       29.67F
CANNON AFB     FAIR      55  33  42 N3        29.69F
CLOVIS AIRPORT FAIR      54  34  47 N5        29.69S

$$
NMZ028-029-538-281500-
SOUTHEAST PLAINS

CITY           SKY/WX    TMP DP  RH WIND       PRES   REMARKS
ROSWELL        FAIR      59  31  34 NW7       29.72S
ARTESIA        FAIR      63  32  31 W10       29.71S
CARLSBAD       FAIR      66  35  31 CALM      29.69
HOBBS          SUNNY     59  30  33 N8        29.72R


$$




USA.gov is the U.S. government's official web portal to all federal, state and local government web resources and services.